When you browse on this site, cookies collect data to enhance your experience and personalize the content and advertising you see.
Visit our Privacy Policy to learn more. By continuing to use the site, you agree to this use of cookies and data.
  • In France
  • List of Countries
  • For 7 days
  • Water Temperature
  • Weather Map
  • Weather Widgets
  • user-avatar
    Login

    Hourly Weather Livingstone

    Today, 21 October, Monday

    Time Temperature Precipitation Wind Pressure Humidity
    00:00 +27°C° 0 mm 1 mps 681 mmHg 14%
    01:00 +26°C° 0 mm 1 mps 681 mmHg 15%
    02:00 +25°C° 0 mm 1 mps 681 mmHg 17%
    03:00 +24°C° 0 mm 1 mps 681 mmHg 18%
    04:00 +24°C° 0 mm 1 mps 680 mmHg 19%
    05:00 +23°C° 0 mm 1 mps 680 mmHg 20%
    06:00 +26°C° 0 mm 1 mps 681 mmHg 17%
    07:00 +30°C° 0 mm 1 mps 682 mmHg 14%
    08:00 +34°C° 0 mm 2 mps 683 mmHg 12%
    09:00 +37°C° 0 mm 2 mps 683 mmHg 10%
    10:00 +40°C° 0 mm 2 mps 683 mmHg 9%
    11:00 +43°C° 0 mm 2 mps 683 mmHg 7%
    12:00 +44°C° 0 mm 3 mps 682 mmHg 7%
    13:00 +44°C° 0 mm 3 mps 681 mmHg 7%
    14:00 +44°C° 0 mm 4 mps 680 mmHg 7%
    15:00 +44°C° 0 mm 4 mps 680 mmHg 7%
    16:00 +43°C° 0 mm 4 mps 679 mmHg 7%
    17:00 +42°C° 0 mm 3 mps 679 mmHg 7%
    18:00 +38°C° 0 mm 3 mps 679 mmHg 10%
    19:00 +36°C° 0 mm 3 mps 679 mmHg 12%
    20:00 +33°C° 0 mm 3 mps 679 mmHg 15%
    21:00 +31°C° 0 mm 2 mps 679 mmHg 16%
    22:00 +30°C° 0 mm 2 mps 679 mmHg 17%
    23:00 +29°C° 0 mm 2 mps 679 mmHg 19%

    Tomorrow, 22 October, Tuesday

    Time Temperature Precipitation Wind Pressure Humidity
    00:00 +28°C° 0 mm 1 mps 679 mmHg 19%
    01:00 +28°C° 0 mm 1 mps 678 mmHg 20%
    02:00 +27°C° 0 mm 1 mps 678 mmHg 21%
    03:00 +26°C° 0 mm 1 mps 678 mmHg 22%
    04:00 +25°C° 0 mm 1 mps 678 mmHg 22%
    05:00 +25°C° 0 mm 1 mps 679 mmHg 23%
    06:00 +28°C° 0 mm 2 mps 680 mmHg 20%
    07:00 +31°C° 0 mm 2 mps 681 mmHg 17%
    08:00 +35°C° 0 mm 2 mps 682 mmHg 14%
    09:00 +37°C° 0 mm 3 mps 682 mmHg 12%
    10:00 +40°C° 0 mm 3 mps 682 mmHg 11%
    11:00 +44°C° 0 mm 4 mps 682 mmHg 9%
    12:00 +44°C° 0 mm 3 mps 681 mmHg 9%
    13:00 +45°C° 0 mm 3 mps 680 mmHg 8%
    14:00 +45°C° 0 mm 3 mps 679 mmHg 8%
    15:00 +44°C° 0 mm 3 mps 679 mmHg 8%
    16:00 +44°C° 0 mm 4 mps 678 mmHg 9%
    17:00 +43°C° 0 mm 4 mps 678 mmHg 10%
    18:00 +41°C° 0 mm 4 mps 678 mmHg 11%
    19:00 +37°C° 0 mm 3 mps 678 mmHg 13%
    20:00 +35°C° 0 mm 3 mps 678 mmHg 15%
    21:00 +34°C° 0 mm 2 mps 678 mmHg 16%
    22:00 +32°C° 0 mm 2 mps 679 mmHg 17%
    23:00 +31°C° 0 mm 2 mps 679 mmHg 19%

    Day after tomorrow, 23 October, Wednesday

    Time Temperature Precipitation Wind Pressure Humidity
    00:00 +31°C° 0 mm 2 mps 679 mmHg 19%
    01:00 +31°C° 0 mm 2 mps 678 mmHg 20%
    02:00 +30°C° 0 mm 3 mps 678 mmHg 21%
    03:00 +29°C° 0 mm 3 mps 678 mmHg 23%
    04:00 +29°C° 0 mm 3 mps 679 mmHg 24%
    05:00 +28°C° 0 mm 3 mps 679 mmHg 26%
    06:00 +30°C° 0 mm 4 mps 680 mmHg 26%
    07:00 +33°C° 0 mm 4 mps 680 mmHg 25%
    08:00 +35°C° 0 mm 5 mps 681 mmHg 24%
    09:00 +37°C° 0 mm 5 mps 681 mmHg 21%
    10:00 +40°C° 0 mm 5 mps 681 mmHg 17%
    11:00 +43°C° 0 mm 5 mps 681 mmHg 14%
    12:00 +43°C° 0 mm 4 mps 681 mmHg 13%
    13:00 +43°C° 0 mm 3 mps 680 mmHg 12%
    14:00 +42°C° 0 mm 2 mps 679 mmHg 11%
    15:00 +43°C° 0 mm 3 mps 679 mmHg 12%
    16:00 +42°C° 0 mm 3 mps 678 mmHg 13%
    17:00 +42°C° 0 mm 4 mps 678 mmHg 14%
    18:00 +39°C° 0 mm 3 mps 678 mmHg 17%
    19:00 +37°C° 0 mm 3 mps 678 mmHg 21%
    20:00 +35°C° 0 mm 3 mps 679 mmHg 24%
    21:00 +34°C° 0 mm 3 mps 679 mmHg 24%
    22:00 +34°C° 0 mm 2 mps 679 mmHg 23%
    23:00 +32°C° 0 mm 2 mps 680 mmHg 23%

    24 October, Thursday

    Time Temperature Precipitation Wind Pressure Humidity
    00:00 +32°C° 0 mm 2 mps 679 mmHg 23%
    01:00 +31°C° 0 mm 2 mps 679 mmHg 24%
    02:00 +31°C° 0 mm 2 mps 679 mmHg 24%
    03:00 +30°C° 0 mm 2 mps 679 mmHg 26%
    04:00 +29°C° 0 mm 1 mps 679 mmHg 28%
    05:00 +29°C° 0 mm 1 mps 680 mmHg 29%
    06:00 +30°C° 0 mm 2 mps 681 mmHg 26%
    07:00 +33°C° 0 mm 3 mps 681 mmHg 23%
    08:00 +35°C° 0 mm 4 mps 682 mmHg 20%
    09:00 +38°C° 0 mm 4 mps 682 mmHg 17%
    10:00 +41°C° 0 mm 4 mps 683 mmHg 14%
    11:00 +44°C° 0 mm 4 mps 683 mmHg 11%
    12:00 +44°C° 0 mm 4 mps 682 mmHg 10%
    13:00 +45°C° 0 mm 4 mps 681 mmHg 9%
    14:00 +47°C° 0 mm 4 mps 680 mmHg 8%
    15:00 +45°C° 0 mm 4 mps 680 mmHg 9%
    16:00 +44°C° 0 mm 4 mps 679 mmHg 10%
    17:00 +43°C° 0 mm 5 mps 679 mmHg 11%
    18:00 +41°C° 0 mm 4 mps 679 mmHg 12%
    19:00 +37°C° 0 mm 3 mps 679 mmHg 12%
    20:00 +35°C° 0 mm 3 mps 679 mmHg 13%
    21:00 +32°C° 0 mm 2 mps 679 mmHg 14%
    22:00 +31°C° 0 mm 1 mps 679 mmHg 16%
    23:00 +30°C° 0 mm 1 mps 679 mmHg 17%

    25 October, Friday

    Time Temperature Precipitation Wind Pressure Humidity
    00:00 +29°C° 0 mm 1 mps 679 mmHg 18%
    01:00 +29°C° 0 mm 1 mps 679 mmHg 19%
    02:00 +28°C° 0 mm 1 mps 679 mmHg 20%
    03:00 +28°C° 0 mm 1 mps 679 mmHg 21%
    04:00 +27°C° 0 mm 1 mps 680 mmHg 23%
    05:00 +27°C° 0 mm 1 mps 680 mmHg 24%
    06:00 +29°C° 0 mm 2 mps 681 mmHg 22%
    07:00 +33°C° 0 mm 3 mps 682 mmHg 20%
    08:00 +35°C° 0 mm 4 mps 683 mmHg 18%
    09:00 +37°C° 0 mm 4 mps 683 mmHg 17%
    10:00 +41°C° 0 mm 4 mps 683 mmHg 15%
    11:00 +43°C° 0 mm 4 mps 683 mmHg 14%
    12:00 +43°C° 0 mm 3 mps 682 mmHg 14%
    13:00 +43°C° 0 mm 3 mps 681 mmHg 14%
    14:00 +42°C° 0 mm 2 mps 680 mmHg 13%
    15:00 +41°C° 0 mm 2 mps 680 mmHg 14%
    16:00 +40°C° 0 mm 3 mps 679 mmHg 16%
    17:00 +40°C° 0 mm 3 mps 679 mmHg 17%
    18:00 +37°C° 0 mm 3 mps 679 mmHg 19%
    19:00 +35°C° 0 mm 2 mps 679 mmHg 22%
    20:00 +32°C° 0 mm 2 mps 679 mmHg 25%
    21:00 +32°C° 0 mm 2 mps 680 mmHg 26%
    22:00 +31°C° 0 mm 1 mps 680 mmHg 27%
    23:00 +30°C° 0 mm 1 mps 680 mmHg 28%

    26 October, Saturday

    Time Temperature Precipitation Wind Pressure Humidity
    00:00 +29°C° 0 mm 2 mps 680 mmHg 30%
    01:00 +29°C° 0 mm 2 mps 679 mmHg 31%
    02:00 +28°C° 0 mm 2 mps 679 mmHg 33%
    03:00 +27°C° 0 mm 1 mps 679 mmHg 35%
    04:00 +26°C° 0 mm 1 mps 679 mmHg 37%
    05:00 +25°C° 0 mm 1 mps 679 mmHg 39%
    06:00 +28°C° 0 mm 1 mps 680 mmHg 34%
    07:00 +31°C° 0 mm 2 mps 681 mmHg 30%
    08:00 +35°C° 0 mm 2 mps 682 mmHg 25%
    09:00 +37°C° 0 mm 2 mps 682 mmHg 22%
    10:00 +40°C° 0 mm 3 mps 682 mmHg 18%
    11:00 +43°C° 0 mm 3 mps 682 mmHg 14%
    12:00 +44°C° 0 mm 3 mps 682 mmHg 13%
    13:00 +45°C° 0 mm 3 mps 681 mmHg 11%
    14:00 +46°C° 0 mm 2 mps 680 mmHg 10%
    15:00 +45°C° 0 mm 3 mps 680 mmHg 11%
    16:00 +44°C° 0 mm 3 mps 679 mmHg 12%
    17:00 +42°C° 0 mm 3 mps 678 mmHg 13%
    18:00 +39°C° 0 mm 3 mps 678 mmHg 15%
    19:00 +37°C° 0 mm 3 mps 679 mmHg 17%
    20:00 +35°C° 0 mm 2 mps 679 mmHg 18%
    21:00 +32°C° 0 mm 2 mps 679 mmHg 20%
    22:00 +31°C° 0 mm 2 mps 679 mmHg 21%
    23:00 +30°C° 0 mm 1 mps 679 mmHg 23%

    27 October, Sunday

    Time Temperature Precipitation Wind Pressure Humidity
    00:00 +29°C° 0 mm 1 mps 678 mmHg 24%
    01:00 +28°C° 0 mm 1 mps 678 mmHg 25%
    02:00 +28°C° 0 mm 1 mps 677 mmHg 25%
    03:00 +27°C° 0 mm 1 mps 678 mmHg 27%
    04:00 +26°C° 0 mm 1 mps 678 mmHg 28%
    05:00 +25°C° 0 mm 1 mps 678 mmHg 29%
    06:00 +29°C° 0 mm 2 mps 679 mmHg 25%
    07:00 +33°C° 0 mm 3 mps 680 mmHg 21%
    08:00 +36°C° 0 mm 4 mps 681 mmHg 16%
    09:00 +38°C° 0 mm 4 mps 681 mmHg 15%
    10:00 +42°C° 0 mm 3 mps 681 mmHg 13%
    11:00 +44°C° 0 mm 3 mps 681 mmHg 11%
    12:00 +45°C° 0 mm 3 mps 681 mmHg 10%
    13:00 +46°C° 0 mm 3 mps 680 mmHg 9%
    14:00 +47°C° 0 mm 3 mps 679 mmHg 8%
    15:00 +46°C° 0 mm 3 mps 679 mmHg 9%
    16:00 +45°C° 0 mm 3 mps 678 mmHg 9%
    17:00 +44°C° 0 mm 3 mps 678 mmHg 10%
    18:00 +40°C° 0 mm 3 mps 678 mmHg 12%
    19:00 +37°C° 0 mm 3 mps 678 mmHg 15%
    20:00 +35°C° 0 mm 2 mps 678 mmHg 17%
    21:00 +34°C° 0 mm 2 mps 678 mmHg 18%
    22:00 +32°C° 0 mm 2 mps 678 mmHg 19%
    23:00 +31°C° 0 mm 2 mps 678 mmHg 20%
    Show more